Home > Time Zones > World Clock > Weather > Japan > Naha > Past weeks

Flag for Japan Weather past 2 weeks in Naha, Okinawa, Japan

Now
72 °F

Passing clouds.


Feels Like: 71 °F
Forecast: 71 / 79 °F
Wind: 7 mph from Southeast

Location: Naha Airport

Current Time: Mar 31, 2015 at 8:25:36 PM

Latest Report: Mar 31, 2015 at 8:00 PM


Visibility: N/A

Pressure: 30.01 "Hg

Humidity: 83%

Dew point: 66 °F

Location of NahaLocation

Historic Weather in Naha — Graph

°F

Naha temperature yesterday

Maximum temperature yesterday: 75 °F (at 11:30 AM)
Minimum temperature yesterday: 64 °F (at 2:30 AM)
Average temperature yesterday: 70 °F

Past Weeks' High & Low Weather Summary

 TemperatureHumidityPressure
High77 °F (Mar 19, 11:30 AM)94% (Mar 17, 3:00 AM)30.42 "Hg (Mar 17, 3:00 AM)
Low59 °F (Mar 23, 10:00 PM)43% (Mar 23, 7:30 PM)29.89 "Hg (Mar 18, 3:00 PM)
Average69 °F69%30.09 "Hg
* Reported Mar 16 7:00 PM — Mar 31 7:30 PM, Naha, Weather by CustomWeather, © 2015

Note: Actual official high and low records may vary slightly from our data, if they occured in-between our weather recording intervals... More about our weather records

Advertising

Naha weather history for previous 24 hours

 ConditionsComfort  
Time TempWeatherWind HumidityBarometerVisibility
7:30 PM
Tue, Mar 31
72 °FPartly cloudy.7 mph83%30.01 "HgN/A
7:00 PM73 °FPartly cloudy.7 mph78%30.01 "HgN/A
6:30 PM73 °FBroken clouds.8 mph78%30.01 "HgN/A
6:00 PM73 °FPartly sunny.9 mph74%29.98 "HgN/A
5:30 PM73 °FPartly sunny.9 mph78%29.98 "HgN/A
5:00 PM73 °FBroken clouds.12 mph78%29.98 "HgN/A
4:30 PM73 °FBroken clouds.13 mph74%29.98 "HgN/A
4:00 PM75 °FPartly sunny.15 mph69%29.98 "HgN/A
3:30 PM73 °FPartly sunny.15 mph74%29.98 "HgN/A
3:00 PM75 °FPartly sunny.16 mph65%29.98 "HgN/A
2:30 PM75 °FBroken clouds.17 mph69%29.98 "HgN/A
2:00 PM75 °FBroken clouds.16 mph65%30.01 "HgN/A
1:30 PM77 °FBroken clouds.15 mph61%30.01 "HgN/A
1:00 PM77 °FPartly sunny.15 mph61%30.04 "HgN/A
12:30 PM75 °FPartly sunny.14 mph65%30.04 "HgN/A
12:00 PM77 °FPartly sunny.15 mph61%30.07 "HgN/A
11:30 AM77 °FPartly sunny.14 mph65%30.07 "HgN/A
11:00 AM75 °FPartly sunny.14 mph65%30.07 "HgN/A
10:30 AM75 °FPartly sunny.15 mph65%30.09 "HgN/A
10:00 AM75 °FPartly sunny.15 mph65%30.07 "HgN/A
9:30 AM73 °FPartly sunny.14 mph69%30.09 "HgN/A
9:00 AM72 °FBroken clouds.14 mph73%30.09 "HgN/A
8:30 AM72 °FPartly sunny.10 mph78%30.07 "HgN/A
8:00 AM72 °FPartly sunny.10 mph78%30.07 "HgN/A
7:30 AM70 °FPartly sunny.7 mph83%30.07 "HgN/A
7:00 AM70 °FPartly sunny.6 mph83%30.07 "HgN/A
6:30 AM70 °FPartly sunny.5 mph83%30.04 "HgN/A
6:00 AM68 °FPassing clouds.6 mph83%30.04 "HgN/A
5:30 AM68 °FPassing clouds.5 mph83%30.04 "HgN/A
5:00 AM68 °FPassing clouds.2 mph83%30.04 "HgN/A
4:30 AM68 °FPassing clouds.5 mph83%30.04 "HgN/A
4:00 AM68 °FPassing clouds.5 mph83%30.04 "HgN/A
3:30 AM68 °FPassing clouds.3 mph83%30.04 "HgN/A
3:00 AM70 °FPassing clouds.5 mph78%30.04 "HgN/A
2:30 AM70 °FPassing clouds.5 mph78%30.04 "HgN/A
2:00 AM68 °FPassing clouds.3 mph83%30.07 "HgN/A
1:30 AM68 °FPassing clouds.5 mph83%30.07 "HgN/A
1:00 AM70 °FPassing clouds.6 mph78%30.07 "HgN/A
12:30 AM70 °FPassing clouds.7 mph78%30.07 "HgN/A
12:00 AM70 °FPassing clouds.7 mph78%30.07 "HgN/A
11:30 PM
Mon, Mar 30
70 °FPassing clouds.6 mph78%30.09 "HgN/A
11:00 PM70 °FPassing clouds.5 mph78%30.09 "HgN/A
10:30 PM70 °FPassing clouds.5 mph78%30.09 "HgN/A
10:00 PM70 °FPassing clouds.7 mph78%30.09 "HgN/A
9:30 PM70 °FPassing clouds.6 mph78%30.09 "HgN/A
9:00 PM70 °FPassing clouds.5 mph73%30.09 "HgN/A
8:30 PM70 °FPassing clouds.6 mph73%30.09 "HgN/A
8:00 PM70 °FPassing clouds.7 mph73%30.09 "HgN/A
Weather by CustomWeather, © 2015

See weather overviewHow to use our weather pages